status,avgMeasuredTime,avgSpeed,extID,medianMeasuredTime,TIMESTAMP,vehicleCount,_id,REPORT_ID
OK,74,66,702,74,2014-08-01T07:50:00,2,20746254,209854
OK,74,66,702,74,2014-08-01T07:55:00,1,20746426,209854
OK,77,63,702,77,2014-08-01T08:00:00,4,20746757,209854
OK,80,61,702,80,2014-08-01T08:05:00,5,20747206,209854
OK,81,60,702,81,2014-08-01T08:10:00,3,20747579,209854
OK,74,66,702,74,2014-08-01T08:15:00,8,20748028,209854
OK,75,65,702,75,2014-08-01T08:20:00,9,20748477,209854
OK,86,56,702,86,2014-08-01T08:25:00,7,20748926,209854
OK,77,63,702,77,2014-08-01T08:30:00,2,20749375,209854
OK,72,67,702,72,2014-08-01T08:35:00,2,20749824,209854
OK,82,59,702,82,2014-08-01T08:40:00,2,20750273,209854
OK,93,52,702,93,2014-08-01T08:45:00,1,20750722,209854
OK,74,66,702,74,2014-08-01T08:50:00,2,20751171,209854
OK,74,66,702,74,2014-08-01T08:55:00,4,20751620,209854
OK,77,63,702,77,2014-08-01T09:00:00,4,20752069,209854
OK,74,66,702,74,2014-08-01T09:05:00,2,20752518,209854
OK,76,64,702,76,2014-08-01T09:10:00,2,20752967,209854
OK,79,61,702,79,2014-08-01T09:15:00,3,20753416,209854
OK,86,56,702,86,2014-08-01T09:20:00,3,20753865,209854
OK,87,56,702,87,2014-08-01T09:25:00,2,20754314,209854
OK,87,56,702,87,2014-08-01T09:30:00,4,20754763,209854
OK,73,66,702,73,2014-08-01T09:35:00,1,20755212,209854
OK,89,54,702,89,2014-08-01T09:40:00,2,20755661,209854
OK,85,57,702,85,2014-08-01T09:45:00,5,20756110,209854
OK,85,57,702,85,2014-08-01T09:50:00,7,20756559,209854
OK,88,55,702,88,2014-08-01T09:55:00,3,20757008,209854
OK,77,63,702,77,2014-08-01T10:00:00,3,20757457,209854
OK,76,64,702,76,2014-08-01T10:05:00,3,20757906,209854
OK,76,64,702,76,2014-08-01T10:10:00,1,20758355,209854
OK,93,52,702,93,2014-08-01T10:15:00,7,20758804,209854
OK,97,50,702,97,2014-08-01T10:20:00,6,20759253,209854
OK,80,61,702,80,2014-08-01T10:25:00,1,20759702,209854
OK,84,58,702,84,2014-08-01T10:30:00,4,20760151,209854
OK,84,58,702,84,2014-08-01T10:35:00,4,20760600,209854
OK,68,71,702,68,2014-08-01T10:40:00,1,20761049,209854
OK,90,54,702,90,2014-08-01T10:45:00,5,20761498,209854
OK,86,56,702,86,2014-08-01T10:50:00,6,20761947,209854
OK,74,66,702,74,2014-08-01T10:55:00,2,20762396,209854
OK,83,58,702,83,2014-08-01T11:00:00,3,20762845,209854
OK,85,57,702,85,2014-08-01T11:05:00,5,20763294,209854
OK,88,55,702,88,2014-08-01T11:10:00,4,20763743,209854
OK,85,57,702,85,2014-08-01T11:15:00,6,20764192,209854
OK,83,58,702,83,2014-08-01T11:20:00,5,20764640,209854
OK,78,62,702,78,2014-08-01T11:25:00,3,20765089,209854
OK,78,62,702,78,2014-08-01T11:30:00,1,20765538,209854
OK,78,62,702,78,2014-08-01T11:35:00,0,20765987,209854
OK,82,59,702,82,2014-08-01T11:40:00,1,20766436,209854
OK,85,57,702,85,2014-08-01T11:45:00,4,20766885,209854
OK,88,55,702,88,2014-08-01T11:50:00,3,20767334,209854
OK,78,62,702,78,2014-08-01T11:55:00,2,20767783,209854
OK,78,62,702,78,2014-08-01T12:00:00,2,20768232,209854
OK,84,58,702,84,2014-08-01T12:05:00,4,20768681,209854
OK,84,58,702,84,2014-08-01T12:10:00,5,20769130,209854
OK,72,67,702,72,2014-08-01T12:15:00,1,20769579,209854
OK,88,55,702,88,2014-08-01T12:20:00,5,20770028,209854
OK,83,58,702,83,2014-08-01T12:25:00,4,20770477,209854
OK,74,66,702,74,2014-08-01T12:30:00,4,20770926,209854
OK,79,61,702,79,2014-08-01T12:35:00,4,20771375,209854
OK,87,56,702,87,2014-08-01T12:40:00,7,20771824,209854
OK,89,54,702,89,2014-08-01T12:45:00,7,20772273,209854
OK,86,56,702,86,2014-08-01T12:50:00,6,20772722,209854
OK,84,58,702,84,2014-08-01T12:55:00,7,20773171,209854
OK,76,64,702,76,2014-08-01T13:00:00,5,20773620,209854
OK,82,59,702,82,2014-08-01T13:05:00,3,20774069,209854
OK,82,59,702,82,2014-08-01T13:10:00,5,20774518,209854
OK,79,61,702,79,2014-08-01T13:15:00,10,20774967,209854
OK,77,63,702,77,2014-08-01T13:20:00,6,20775416,209854
OK,83,58,702,83,2014-08-01T13:25:00,5,20775865,209854
OK,79,61,702,79,2014-08-01T13:30:00,4,20776314,209854
OK,83,58,702,83,2014-08-01T13:35:00,4,20776763,209854
OK,79,61,702,79,2014-08-01T13:40:00,7,20777212,209854
OK,74,66,702,74,2014-08-01T13:45:00,6,20777661,209854
OK,93,52,702,93,2014-08-01T13:50:00,2,20778110,209854
OK,76,64,702,76,2014-08-01T13:55:00,3,20778559,209854
OK,76,64,702,76,2014-08-01T14:00:00,3,20779008,209854
OK,81,60,702,81,2014-08-01T14:05:00,4,20779457,209854
OK,81,60,702,81,2014-08-01T14:10:00,3,20779906,209854
OK,79,61,702,79,2014-08-01T14:15:00,2,20780355,209854
OK,78,62,702,78,2014-08-01T14:20:00,5,20780804,209854
OK,73,66,702,73,2014-08-01T14:25:00,4,20781253,209854
OK,74,66,702,74,2014-08-01T14:30:00,2,20781702,209854
OK,80,61,702,80,2014-08-01T14:35:00,2,20782151,209854
OK,83,58,702,83,2014-08-01T14:40:00,2,20782600,209854
OK,73,66,702,73,2014-08-01T14:45:00,2,20783049,209854
OK,75,65,702,75,2014-08-01T14:50:00,2,20783498,209854
OK,78,62,702,78,2014-08-01T14:55:00,2,20783947,209854
OK,71,68,702,71,2014-08-01T15:00:00,1,20784396,209854
OK,97,50,702,97,2014-08-01T15:05:00,3,20784845,209854
OK,76,64,702,76,2014-08-01T15:10:00,5,20785294,209854
OK,75,65,702,75,2014-08-01T15:15:00,3,20785743,209854
OK,72,67,702,72,2014-08-01T15:20:00,3,20786192,209854
OK,75,65,702,75,2014-08-01T15:25:00,4,20786641,209854
OK,76,64,702,76,2014-08-01T15:30:00,5,20787090,209854
OK,69,70,702,69,2014-08-01T15:35:00,1,20787539,209854
OK,73,66,702,73,2014-08-01T15:40:00,1,20787988,209854
OK,85,57,702,85,2014-08-01T15:45:00,2,20788437,209854
OK,84,58,702,84,2014-08-01T15:50:00,4,20788886,209854
OK,80,61,702,80,2014-08-01T15:55:00,5,20789335,209854
OK,73,66,702,73,2014-08-01T16:00:00,3,20789784,209854
OK,73,66,702,73,2014-08-01T16:05:00,1,20790233,209854
OK,73,66,702,73,2014-08-01T16:10:00,0,20790682,209854
OK,73,66,702,73,2014-08-01T16:15:00,0,20791131,209854
OK,75,65,702,75,2014-08-01T16:20:00,1,20791580,209854
OK,75,65,702,75,2014-08-01T16:25:00,1,20792029,209854
OK,75,65,702,75,2014-08-01T16:30:00,0,20792478,209854
OK,73,66,702,73,2014-08-01T16:35:00,1,20792927,209854
OK,73,66,702,73,2014-08-01T16:40:00,0,20793376,209854
OK,71,68,702,71,2014-08-01T16:45:00,1,20793825,209854
OK,81,60,702,81,2014-08-01T16:50:00,3,20794274,209854
OK,96,50,702,96,2014-08-01T16:55:00,1,20794723,209854
OK,73,66,702,73,2014-08-01T17:00:00,2,20795172,209854
OK,73,66,702,73,2014-08-01T17:05:00,2,20795621,209854
OK,73,66,702,73,2014-08-01T17:10:00,1,20796070,209854
OK,101,48,702,101,2014-08-01T17:15:00,1,20796519,209854
OK,101,48,702,101,2014-08-01T17:20:00,1,20796968,209854
OK,101,48,702,101,2014-08-01T17:25:00,0,20797417,209854
OK,101,48,702,101,2014-08-01T17:30:00,0,20797866,209854
OK,101,48,702,101,2014-08-01T17:35:00,0,20798315,209854
OK,72,67,702,72,2014-08-01T17:40:00,2,20798764,209854
OK,72,67,702,72,2014-08-01T17:45:00,2,20799213,209854
OK,70,69,702,70,2014-08-01T17:50:00,0,20799662,209854
OK,70,69,702,70,2014-08-01T17:55:00,0,20800111,209854
OK,70,69,702,70,2014-08-01T18:00:00,0,20800560,209854
OK,75,65,702,75,2014-08-01T18:05:00,1,20801009,209854
OK,72,67,702,72,2014-08-01T18:10:00,2,20801458,209854
OK,72,67,702,72,2014-08-01T18:15:00,2,20801907,209854
OK,71,68,702,71,2014-08-01T18:20:00,1,20802356,209854
OK,71,68,702,71,2014-08-01T18:25:00,1,20802805,209854
OK,81,60,702,81,2014-08-01T18:30:00,1,20803254,209854
OK,81,60,702,81,2014-08-01T18:35:00,1,20803703,209854
OK,81,60,702,81,2014-08-01T18:40:00,0,20804152,209854
OK,69,70,702,69,2014-08-01T18:45:00,1,20804601,209854
OK,80,61,702,80,2014-08-01T18:50:00,2,20805050,209854
OK,85,57,702,85,2014-08-01T18:55:00,2,20805499,209854
OK,78,62,702,78,2014-08-01T19:00:00,1,20805948,209854
OK,78,62,702,78,2014-08-01T19:05:00,0,20806397,209854
OK,78,62,702,78,2014-08-01T19:10:00,0,20806846,209854
OK,78,62,702,78,2014-08-01T19:15:00,0,20807295,209854
OK,58,84,702,58,2014-08-01T19:20:00,2,20807744,209854
OK,58,84,702,58,2014-08-01T19:25:00,2,20808193,209854
OK,58,84,702,58,2014-08-01T19:30:00,0,20808642,209854
OK,58,84,702,58,2014-08-01T19:35:00,0,20809091,209854
OK,75,65,702,75,2014-08-01T19:40:00,1,20809540,209854
OK,75,65,702,75,2014-08-01T19:45:00,1,20809989,209854
OK,75,65,702,75,2014-08-01T19:50:00,0,20810438,209854
OK,84,58,702,84,2014-08-01T19:55:00,1,20810887,209854
OK,82,59,702,82,2014-08-01T20:00:00,3,20811332,209854
OK,74,66,702,74,2014-08-01T20:05:00,1,20811506,209854
OK,74,66,702,74,2014-08-01T20:10:00,0,20811709,209854
OK,57,85,702,57,2014-08-01T20:15:00,1,20811915,209854
OK,57,85,702,57,2014-08-01T20:20:00,1,20812124,209854
OK,83,58,702,83,2014-08-01T20:25:00,1,20812342,209854
OK,81,60,702,81,2014-08-01T20:30:00,2,20812557,209854
OK,71,68,702,71,2014-08-01T20:35:00,1,20812765,209854
OK,71,68,702,71,2014-08-01T20:40:00,0,20812967,209854
OK,76,64,702,76,2014-08-01T20:45:00,1,20813175,209854
OK,76,64,702,76,2014-08-01T20:50:00,1,20813386,209854
OK,76,64,702,76,2014-08-01T20:55:00,0,20813616,209854
OK,76,64,702,76,2014-08-01T21:00:00,0,20813854,209854
OK,77,63,702,77,2014-08-01T21:05:00,2,20814030,209854
OK,77,63,702,77,2014-08-01T21:10:00,2,20814270,209854
OK,77,63,702,77,2014-08-01T21:15:00,0,20814466,209854
OK,77,63,702,77,2014-08-01T21:20:00,0,20814673,209854
OK,77,63,702,77,2014-08-01T21:25:00,0,20814902,209854
OK,77,63,702,77,2014-08-01T21:30:00,0,20815178,209854
OK,75,65,702,75,2014-08-01T21:35:00,2,20815411,209854
OK,72,67,702,72,2014-08-01T21:40:00,1,20815635,209854
OK,72,67,702,72,2014-08-01T21:45:00,0,20815872,209854
OK,72,67,702,72,2014-08-01T21:50:00,0,20816113,209854
OK,72,67,702,72,2014-08-01T21:55:00,0,20816348,209854
OK,72,67,702,72,2014-08-01T22:00:00,0,20816616,209854
OK,72,67,702,72,2014-08-01T22:05:00,0,20817065,209854
OK,84,58,702,84,2014-08-01T22:10:00,1,20817387,209854
OK,84,58,702,84,2014-08-01T22:15:00,1,20817816,209854
OK,84,58,702,84,2014-08-01T22:20:00,0,20818106,209854
OK,84,58,702,84,2014-08-01T22:25:00,0,20818422,209854
OK,84,58,702,84,2014-08-01T22:30:00,0,20818756,209854
OK,84,58,702,84,2014-08-01T22:35:00,0,20819058,209854
OK,84,58,702,84,2014-08-01T22:40:00,0,20819240,209854
OK,70,69,702,70,2014-08-01T22:45:00,1,20819528,209854
OK,75,65,702,75,2014-08-01T22:50:00,2,20819763,209854
OK,80,61,702,80,2014-08-01T22:55:00,0,20820016,209854
OK,80,61,702,80,2014-08-01T23:00:00,0,20820192,209854
OK,66,74,702,66,2014-08-01T23:05:00,1,20820445,209854
OK,66,74,702,66,2014-08-01T23:10:00,0,20820675,209854
OK,66,74,702,66,2014-08-01T23:15:00,0,20820863,209854
OK,66,74,702,66,2014-08-01T23:20:00,0,20821113,209854
OK,73,66,702,73,2014-08-01T23:25:00,1,20821291,209854
OK,73,66,702,73,2014-08-01T23:30:00,0,20821517,209854
OK,73,66,702,73,2014-08-01T23:35:00,0,20821762,209854
OK,73,66,702,73,2014-08-01T23:40:00,0,20821941,209854
OK,73,66,702,73,2014-08-01T23:45:00,0,20822164,209854
OK,73,66,702,73,2014-08-01T23:50:00,0,20822431,209854
OK,75,65,702,75,2014-08-01T23:55:00,1,20822757,209854
OK,75,65,702,75,2014-08-02T00:00:00,0,20823055,209854
OK,75,65,702,75,2014-08-02T00:05:00,0,20823504,209854
OK,75,65,702,75,2014-08-02T00:10:00,0,20823953,209854
OK,75,65,702,75,2014-08-02T00:15:00,0,20824402,209854
OK,75,65,702,75,2014-08-02T00:20:00,0,20824851,209854
OK,75,65,702,75,2014-08-02T00:25:00,0,20825300,209854
OK,75,65,702,75,2014-08-02T00:30:00,0,20825749,209854
OK,75,65,702,75,2014-08-02T00:35:00,0,20826198,209854
OK,75,65,702,75,2014-08-02T00:40:00,0,20826647,209854
OK,75,65,702,75,2014-08-02T00:45:00,0,20827096,209854
OK,75,65,702,75,2014-08-02T00:50:00,0,20827545,209854
OK,75,65,702,75,2014-08-02T00:55:00,0,20827994,209854
OK,75,65,702,75,2014-08-02T01:00:00,0,20828443,209854
OK,75,65,702,75,2014-08-02T01:05:00,0,20828892,209854
OK,75,65,702,75,2014-08-02T01:10:00,0,20829341,209854
OK,67,72,702,67,2014-08-02T01:15:00,1,20829790,209854
OK,67,72,702,67,2014-08-02T01:20:00,1,20830239,209854
OK,67,72,702,67,2014-08-02T01:25:00,0,20830688,209854
OK,67,72,702,67,2014-08-02T01:30:00,0,20831137,209854
OK,67,72,702,67,2014-08-02T01:35:00,0,20831586,209854
OK,67,72,702,67,2014-08-02T01:40:00,0,20832035,209854
OK,67,72,702,67,2014-08-02T01:45:00,0,20832484,209854
OK,67,72,702,67,2014-08-02T01:50:00,0,20832933,209854
OK,67,72,702,67,2014-08-02T01:55:00,0,20833382,209854
OK,67,72,702,67,2014-08-02T02:00:00,0,20833831,209854
OK,67,72,702,67,2014-08-02T02:05:00,0,20834280,209854
OK,67,72,702,67,2014-08-02T02:10:00,0,20834729,209854
OK,67,72,702,67,2014-08-02T02:15:00,0,20835178,209854
OK,67,72,702,67,2014-08-02T02:20:00,0,20835627,209854
OK,67,72,702,67,2014-08-02T02:25:00,0,20836076,209854
OK,67,72,702,67,2014-08-02T02:30:00,0,20836525,209854
OK,86,56,702,86,2014-08-02T02:35:00,0,20836974,209854
OK,86,56,702,86,2014-08-02T02:40:00,0,20837423,209854
OK,86,56,702,86,2014-08-02T02:45:00,0,20837872,209854
OK,86,56,702,86,2014-08-02T02:50:00,0,20838321,209854
OK,86,56,702,86,2014-08-02T02:55:00,0,20838770,209854
OK,53,92,702,53,2014-08-02T03:00:00,1,20839219,209854
OK,64,76,702,64,2014-08-02T03:05:00,3,20839668,209854
OK,71,68,702,71,2014-08-02T03:10:00,0,20840117,209854
OK,71,68,702,71,2014-08-02T03:15:00,0,20840566,209854
OK,71,68,702,71,2014-08-02T03:20:00,0,20841015,209854
OK,71,68,702,71,2014-08-02T03:25:00,0,20841464,209854
OK,71,68,702,71,2014-08-02T03:30:00,0,20841913,209854
OK,74,66,702,74,2014-08-02T03:35:00,1,20842362,209854
OK,74,66,702,74,2014-08-02T03:40:00,1,20842811,209854
OK,74,66,702,74,2014-08-02T03:45:00,0,20843260,209854
OK,74,66,702,74,2014-08-02T03:50:00,0,20843709,209854
OK,74,66,702,74,2014-08-02T03:55:00,0,20844158,209854
OK,74,66,702,74,2014-08-02T04:00:00,0,20844607,209854
OK,74,66,702,74,2014-08-02T04:05:00,0,20844738,209854
OK,74,66,702,74,2014-08-02T04:10:00,0,20845068,209854
OK,74,66,702,74,2014-08-02T04:15:00,0,20845248,209854
OK,74,66,702,74,2014-08-02T04:20:00,0,20845604,209854
OK,74,66,702,74,2014-08-02T04:30:00,0,20846160,209854
OK,74,66,702,74,2014-08-02T04:35:00,0,20846527,209854
OK,74,66,702,74,2014-08-02T04:40:00,0,20846910,209854
OK,74,66,702,74,2014-08-02T04:45:00,0,20847169,209854
OK,74,66,702,74,2014-08-02T04:50:00,0,20847535,209854
OK,74,66,702,74,2014-08-02T04:55:00,0,20847892,209854
OK,79,61,702,79,2014-08-02T05:00:00,1,20848252,209854
OK,79,61,702,79,2014-08-02T05:05:00,1,20848416,209854
OK,79,61,702,79,2014-08-02T05:10:00,0,20848770,209854
OK,79,61,702,79,2014-08-02T05:15:00,0,20848962,209854
OK,79,61,702,79,2014-08-02T05:20:00,0,20849306,209854
OK,79,61,702,79,2014-08-02T05:30:00,0,20849831,209854
OK,84,58,702,84,2014-08-02T05:35:00,1,20850103,209854
OK,84,58,702,84,2014-08-02T05:40:00,1,20850396,209854
OK,84,58,702,84,2014-08-02T05:45:00,0,20850697,209854
OK,84,58,702,84,2014-08-02T05:50:00,0,20851055,209854
OK,72,67,702,72,2014-08-02T05:55:00,1,20851309,209854
OK,72,67,702,72,2014-08-02T06:00:00,1,20851612,209854
OK,72,67,702,72,2014-08-02T06:05:00,0,20852061,209854
OK,72,67,702,72,2014-08-02T06:10:00,0,20852510,209854
OK,72,67,702,72,2014-08-02T06:15:00,0,20852959,209854
OK,77,63,702,77,2014-08-02T06:20:00,2,20853408,209854
OK,75,65,702,75,2014-08-02T06:25:00,3,20853857,209854
OK,72,67,702,72,2014-08-02T06:30:00,3,20854306,209854
OK,70,69,702,70,2014-08-02T06:35:00,0,20854755,209854
OK,70,69,702,70,2014-08-02T06:40:00,0,20855204,209854
OK,70,69,702,70,2014-08-02T06:45:00,0,20855653,209854
OK,69,70,702,69,2014-08-02T06:50:00,1,20856102,209854
OK,69,70,702,69,2014-08-02T06:55:00,1,20856551,209854
OK,69,70,702,69,2014-08-02T07:00:00,0,20857000,209854
OK,69,70,702,69,2014-08-02T07:05:00,0,20857449,209854
OK,69,70,702,69,2014-08-02T07:10:00,0,20857898,209854
OK,83,58,702,83,2014-08-02T07:15:00,1,20858347,209854
OK,83,58,702,83,2014-08-02T07:20:00,1,20858796,209854
OK,83,58,702,83,2014-08-02T07:25:00,0,20859245,209854
OK,76,64,702,76,2014-08-02T07:30:00,1,20859694,209854
OK,70,69,702,70,2014-08-02T07:35:00,2,20860143,209854
OK,65,75,702,65,2014-08-02T07:40:00,1,20860592,209854
OK,79,61,702,79,2014-08-02T07:45:00,2,20861041,209854
OK,81,60,702,81,2014-08-02T07:50:00,3,20861490,209854
OK,88,55,702,88,2014-08-02T07:55:00,1,20861939,209854
OK,80,61,702,80,2014-08-02T08:00:00,1,20862388,209854
OK,80,61,702,80,2014-08-02T08:05:00,0,20862837,209854
OK,65,75,702,65,2014-08-02T08:10:00,1,20863286,209854
OK,70,69,702,70,2014-08-02T08:15:00,3,20863735,209854
OK,79,61,702,79,2014-08-02T08:20:00,4,20864184,209854
OK,86,56,702,86,2014-08-02T08:25:00,2,20864633,209854
OK,91,53,702,91,2014-08-02T08:30:00,0,20865082,209854
OK,91,53,702,91,2014-08-02T08:35:00,0,20865531,209854
OK,79,61,702,79,2014-08-02T08:40:00,3,20865980,209854
OK,76,64,702,76,2014-08-02T08:45:00,5,20866429,209854
OK,74,66,702,74,2014-08-02T08:50:00,4,20866878,209854
OK,74,66,702,74,2014-08-02T08:55:00,4,20867327,209854
OK,77,63,702,77,2014-08-02T09:00:00,3,20867776,209854
OK,76,64,702,76,2014-08-02T09:05:00,2,20868225,209854
OK,90,54,702,90,2014-08-02T09:10:00,1,20868674,209854
OK,90,54,702,90,2014-08-02T09:15:00,1,20869123,209854
OK,70,69,702,70,2014-08-02T09:20:00,2,20869572,209854
OK,81,60,702,81,2014-08-02T09:25:00,3,20870021,209854
OK,80,61,702,80,2014-08-02T09:30:00,4,20870470,209854
OK,79,61,702,79,2014-08-02T09:35:00,3,20870919,209854
OK,79,61,702,79,2014-08-02T09:40:00,2,20871368,209854
OK,78,62,702,78,2014-08-02T09:45:00,1,20871817,209854
OK,71,68,702,71,2014-08-02T09:50:00,1,20872266,209854
OK,69,70,702,69,2014-08-02T09:55:00,2,20872715,209854
OK,69,70,702,69,2014-08-02T10:00:00,0,20873164,209854
OK,77,63,702,77,2014-08-02T10:05:00,3,20873613,209854
OK,77,63,702,77,2014-08-02T10:10:00,7,20874062,209854
OK,83,58,702,83,2014-08-02T10:15:00,1,20874511,209854
OK,83,58,702,83,2014-08-02T10:20:00,0,20874960,209854
OK,83,58,702,83,2014-08-02T10:25:00,0,20875409,209854
OK,74,66,702,74,2014-08-02T10:30:00,2,20875858,209854
OK,77,63,702,77,2014-08-02T10:35:00,3,20876307,209854
OK,77,63,702,77,2014-08-02T10:40:00,3,20876756,209854
OK,70,69,702,70,2014-08-02T10:45:00,3,20877205,209854
OK,70,69,702,70,2014-08-02T10:50:00,1,20877654,209854
OK,73,66,702,73,2014-08-02T10:55:00,2,20878103,209854
OK,79,61,702,79,2014-08-02T11:00:00,2,20878552,209854
OK,85,57,702,85,2014-08-02T11:05:00,3,20879001,209854
OK,81,60,702,81,2014-08-02T11:10:00,4,20879450,209854
OK,78,62,702,78,2014-08-02T11:15:00,3,20879899,209854
OK,71,68,702,71,2014-08-02T11:20:00,1,20880348,209854
OK,72,67,702,72,2014-08-02T11:25:00,3,20880797,209854
OK,72,67,702,72,2014-08-02T11:30:00,3,20881246,209854
OK,72,67,702,72,2014-08-02T11:35:00,0,20881695,209854
OK,74,66,702,74,2014-08-02T11:40:00,2,20882144,209854
OK,73,66,702,73,2014-08-02T11:45:00,8,20882593,209854
OK,75,65,702,75,2014-08-02T11:50:00,4,20883042,209854
OK,83,58,702,83,2014-08-02T11:55:00,1,20883491,209854
OK,83,58,702,83,2014-08-02T12:00:00,1,20883940,209854
OK,83,58,702,83,2014-08-02T12:05:00,0,20884389,209854
OK,69,70,702,69,2014-08-02T12:10:00,1,20884838,209854
OK,71,68,702,71,2014-08-02T12:15:00,2,20885287,209854
OK,73,66,702,73,2014-08-02T12:20:00,1,20885736,209854
OK,73,66,702,73,2014-08-02T12:25:00,0,20886185,209854
OK,74,66,702,74,2014-08-02T12:30:00,2,20886634,209854
OK,74,66,702,74,2014-08-02T12:35:00,2,20887083,209854
OK,69,70,702,69,2014-08-02T12:40:00,1,20887532,209854
OK,69,70,702,69,2014-08-02T12:45:00,1,20887981,209854
OK,67,72,702,67,2014-08-02T12:50:00,1,20888430,209854
OK,89,54,702,89,2014-08-02T12:55:00,2,20888879,209854
OK,96,50,702,96,2014-08-02T13:00:00,0,20889328,209854
OK,72,67,702,72,2014-08-02T13:05:00,2,20889777,209854
OK,72,67,702,72,2014-08-02T13:10:00,1,20890226,209854
OK,72,67,702,72,2014-08-02T13:15:00,0,20890675,209854
OK,72,67,702,72,2014-08-02T13:20:00,0,20891124,209854
OK,72,67,702,72,2014-08-02T13:25:00,0,20891573,209854
OK,69,70,702,69,2014-08-02T13:30:00,1,20892022,209854
OK,69,70,702,69,2014-08-02T13:35:00,1,20892471,209854
OK,76,64,702,76,2014-08-02T13:40:00,1,20892920,209854
OK,76,64,702,76,2014-08-02T13:45:00,1,20893369,209854
OK,71,68,702,71,2014-08-02T13:50:00,1,20893818,209854
OK,75,65,702,75,2014-08-02T13:55:00,4,20894267,209854
OK,76,64,702,76,2014-08-02T14:00:00,2,20894716,209854
OK,83,58,702,83,2014-08-02T14:05:00,1,20895165,209854
OK,83,58,702,83,2014-08-02T14:10:00,0,20895614,209854
OK,83,58,702,83,2014-08-02T14:15:00,0,20896063,209854
OK,83,58,702,83,2014-08-02T14:20:00,0,20896512,209854
OK,87,56,702,87,2014-08-02T14:25:00,1,20896961,209854
OK,80,61,702,80,2014-08-02T14:30:00,2,20897410,209854
OK,72,67,702,72,2014-08-02T14:35:00,2,20897859,209854
OK,72,67,702,72,2014-08-02T14:40:00,1,20898308,209854
OK,72,67,702,72,2014-08-02T14:45:00,0,20898757,209854
OK,72,67,702,72,2014-08-02T14:50:00,0,20899206,209854
OK,69,70,702,69,2014-08-02T14:55:00,1,20899655,209854
OK,70,69,702,70,2014-08-02T15:00:00,2,20900104,209854
OK,71,68,702,71,2014-08-02T15:05:00,1,20900553,209854
OK,81,60,702,81,2014-08-02T15:10:00,1,20901002,209854
OK,81,60,702,81,2014-08-02T15:15:00,2,20901451,209854
OK,82,59,702,82,2014-08-02T15:20:00,0,20901900,209854
OK,82,59,702,82,2014-08-02T15:25:00,0,20902349,209854
OK,82,59,702,82,2014-08-02T15:30:00,0,20902798,209854
OK,71,68,702,71,2014-08-02T15:35:00,2,20903247,209854
OK,69,70,702,69,2014-08-02T15:40:00,3,20903696,209854
OK,69,70,702,69,2014-08-02T15:45:00,1,20904145,209854
OK,174,28,702,174,2014-08-02T15:50:00,1,20904594,209854
OK,125,39,702,125,2014-08-02T15:55:00,2,20905043,209854
OK,86,56,702,86,2014-08-02T16:00:00,2,20905492,209854
OK,97,50,702,97,2014-08-02T16:05:00,1,20905941,209854
OK,97,50,702,97,2014-08-02T16:10:00,0,20906390,209854
OK,97,50,702,97,2014-08-02T16:15:00,0,20906839,209854
OK,97,50,702,97,2014-08-02T16:20:00,0,20907288,209854
OK,97,50,702,97,2014-08-02T16:25:00,0,20907737,209854
OK,97,50,702,97,2014-08-02T16:30:00,0,20908186,209854
OK,97,50,702,97,2014-08-02T16:35:00,0,20908635,209854
OK,97,50,702,97,2014-08-02T16:40:00,0,20909084,209854
OK,97,50,702,97,2014-08-02T16:45:00,0,20909533,209854
OK,97,50,702,97,2014-08-02T16:50:00,0,20909982,209854
OK,97,50,702,97,2014-08-02T16:55:00,0,20910431,209854
OK,97,50,702,97,2014-08-02T17:00:00,0,20910880,209854
OK,97,50,702,97,2014-08-02T17:05:00,0,20911329,209854
OK,97,50,702,97,2014-08-02T17:10:00,0,20911778,209854
OK,97,50,702,97,2014-08-02T17:15:00,0,20912227,209854
OK,97,50,702,97,2014-08-02T17:20:00,0,20912676,209854
OK,74,66,702,74,2014-08-02T17:25:00,2,20913125,209854
OK,74,66,702,74,2014-08-02T17:30:00,2,20913574,209854
OK,59,82,702,59,2014-08-02T17:35:00,1,20914023,209854
OK,59,82,702,59,2014-08-02T17:40:00,1,20914472,209854
OK,65,75,702,65,2014-08-02T17:45:00,1,20914921,209854
OK,65,75,702,65,2014-08-02T17:50:00,1,20915370,209854
OK,65,75,702,65,2014-08-02T17:55:00,0,20915819,209854
OK,65,75,702,65,2014-08-02T18:00:00,0,20916268,209854
OK,65,75,702,65,2014-08-02T18:05:00,0,20916717,209854
OK,83,58,702,83,2014-08-02T18:10:00,1,20917166,209854
OK,83,58,702,83,2014-08-02T18:15:00,1,20917615,209854
OK,83,58,702,83,2014-08-02T18:20:00,0,20918064,209854
OK,83,58,702,83,2014-08-02T18:25:00,0,20918513,209854
OK,78,62,702,78,2014-08-02T18:30:00,1,20918962,209854
OK,78,62,702,78,2014-08-02T18:35:00,0,20919411,209854
OK,71,68,702,71,2014-08-02T18:40:00,2,20919860,209854
OK,75,65,702,75,2014-08-02T18:45:00,1,20920309,209854
OK,75,65,702,75,2014-08-02T18:50:00,1,20920758,209854
OK,75,65,702,75,2014-08-02T18:55:00,0,20921207,209854
OK,75,65,702,75,2014-08-02T19:00:00,0,20921656,209854
OK,66,74,702,66,2014-08-02T19:05:00,1,20922105,209854
OK,66,74,702,66,2014-08-02T19:10:00,1,20922554,209854
OK,66,74,702,66,2014-08-02T19:15:00,0,20923003,209854
OK,66,74,702,66,2014-08-02T19:20:00,0,20923452,209854
OK,66,74,702,66,2014-08-02T19:25:00,0,20923901,209854
OK,66,74,702,66,2014-08-02T19:30:00,0,20924350,209854
OK,66,74,702,66,2014-08-02T19:35:00,0,20924799,209854
OK,66,74,702,66,2014-08-02T19:40:00,0,20925248,209854
OK,77,63,702,77,2014-08-02T19:45:00,2,20925697,209854
OK,77,63,702,77,2014-08-02T19:50:00,2,20926146,209854
OK,82,59,702,82,2014-08-02T19:55:00,2,20926595,209854
OK,76,64,702,76,2014-08-02T20:00:00,3,20927044,209854
OK,73,66,702,73,2014-08-02T20:05:00,1,20927493,209854